Location: Napa Junction
(38.1874°N, 122.2508°W)
Time: 11:48:24
(UTC+00:00)

Cosmos 2360 Rocket - Pass Details

Date: 08 September 2024
Orbit: 835 x 842 km, 71.0° (Epoch: 12 October)

Event Time Altitude Azimuth Distance (km) Brightness Sun altitude
Rises 12:26:40 0° 338° (NNW) 3,390 5.3 -15.8°
Reaches altitude 10° 12:29:08 10° 340° (NNW) 2,452 4.6 -15.3°
Maximum altitude 12:34:45 78° 67° (ENE) 856 2.3 -14.3°
Drops below altitude 10° 12:40:21 10° 154° (SSE) 2,437 4.7 -13.3°
Sets 12:42:47 0° 156° (SSE) 3,367 5.4 -12.8°
